Weather History for Bedford, MA

Change the Weather History Date:

Tuesday, April 30, 2013

  Actual Average Record
Temperature  
Mean Temperature 54 °F -  
Max Temperature 66 °F 65 °F 84 °F (1985)
Min Temperature 42 °F 40 °F 27 °F (2006)
Degree Days  
Heating Degree Days 11    
Growing Degree Days 4 (Base 50)    
Moisture  
Dew Point 29 °F    
Average Humidity 42    
Maximum Humidity 76    
Minimum Humidity 19    
Precipitation  
Precipitation 0.00 in - - ()
Sea Level Pressure  
Sea Level Pressure 30.34 in    
Wind  
Wind Speed 4 mph (ESE)    
Max Wind Speed 13 mph    
Max Gust Speed 16 mph    
Visibility 10 miles    
Events      
Averages and records for this station are not official NWS values.
T = Trace of Precipitation, MM = Missing Value Source: NWS Daily Summary

Daily Weather History Graph

Daily Weather History Graph

Search for Another Location

Airport:

Trip Planner

Search our weather history database for the weather conditions in past years. The results will help you decide how hot, cold, wet, or windy it might be!

Date:

Astronomy

Apr. 30, 2013 Rise Set
Actual Time 5:41 AM EDT 7:44 PM EDT
Civil Twilight 5:10 AM EDT 8:14 PM EDT
Nautical Twilight 4:33 AM EDT 8:52 PM EDT
Astronomical Twilight 3:52 AM EDT 9:33 PM EDT
Moon 12:06 AM EDT (4/30) 10:05 AM EDT (4/30)
Length of Visible Light 15h 04m
Length of Day
14h 02m
Waning Gibbous, 70% of the Moon is Illuminated
Apr 30
Waning Gibbous
May 2
Last Quarter
May 9
New
May 18
First Quarter
May 25
Full

Hourly Weather History & Observations

Time (EDT) Temp. Windchill Dew Point Humidity Pressure Visibility Wind Dir Wind Speed Gust Speed Precip Events Conditions
12:56 AM 52.0 °F - 30.9 °F 45% 30.29 in 10.0 mi SSE 5.8 mph - N/A   Overcast
1:56 AM 50.0 °F - 30.9 °F 48% 30.29 in 10.0 mi South 3.5 mph - N/A   Mostly Cloudy
2:56 AM 48.0 °F - 32.0 °F 54% 30.29 in 10.0 mi Calm Calm - N/A   Clear
3:56 AM 45.0 °F - 34.0 °F 65% 30.30 in 10.0 mi Calm Calm - N/A   Clear
4:56 AM 42.1 °F - 33.1 °F 70% 30.31 in 10.0 mi Calm Calm - N/A   Clear
5:56 AM 42.1 °F - 34.0 °F 73% 30.32 in 10.0 mi Calm Calm - N/A   Clear
6:56 AM 45.0 °F - 37.9 °F 76% 30.34 in 10.0 mi Calm Calm - N/A   Clear
7:56 AM 51.1 °F - 37.9 °F 61% 30.36 in 10.0 mi Calm Calm - N/A   Clear
8:56 AM 55.0 °F - 26.1 °F 33% 30.36 in 10.0 mi SW 4.6 mph - N/A   Clear
9:56 AM 59.0 °F - 19.9 °F 22% 30.36 in 10.0 mi Calm Calm - N/A   Clear
10:56 AM 62.1 °F - 24.1 °F 23% 30.35 in 10.0 mi South 5.8 mph - N/A   Clear
11:56 AM 64.9 °F - 28.0 °F 25% 30.35 in 10.0 mi East 6.9 mph - N/A   Clear
12:56 PM 64.9 °F - 25.0 °F 22% 30.33 in 10.0 mi East 8.1 mph - N/A   Clear
1:56 PM 66.9 °F - 30.0 °F 25% 30.33 in 10.0 mi East 8.1 mph - N/A   Clear
2:56 PM 66.9 °F - 27.0 °F 22% 30.33 in 10.0 mi East 12.7 mph 16.1 mph N/A   Clear
3:56 PM 64.9 °F - 21.9 °F 19% 30.32 in 10.0 mi SE 10.4 mph - N/A   Clear
4:56 PM 64.0 °F - 21.9 °F 20% 30.33 in 10.0 mi East 11.5 mph - N/A   Clear
5:56 PM 62.1 °F - 24.1 °F 23% 30.35 in 10.0 mi East 11.5 mph - N/A   Clear
6:56 PM 57.9 °F - 21.0 °F 24% 30.35 in 10.0 mi ESE 8.1 mph - N/A   Clear
7:56 PM 55.0 °F - 27.0 °F 34% 30.37 in 10.0 mi ESE 6.9 mph - N/A   Partly Cloudy
8:56 PM 51.1 °F - 30.9 °F 46% 30.38 in 10.0 mi East 8.1 mph - N/A   Clear
9:56 PM 50.0 °F - 34.0 °F 54% 30.38 in 10.0 mi ESE 3.5 mph - N/A   Clear
10:56 PM 46.0 °F - 34.0 °F 63% 30.39 in 10.0 mi Calm Calm - N/A   Clear
11:56 PM 43.0 °F 41.3 °F 34.0 °F 71% 30.41 in 10.0 mi ENE 3.5 mph - N/A   Clear